www.pogodaiklimat.ru

Погода и климат >> Архив погоды >> Австралия >> Западная Австралия >> Перт Монт-Лоули


ПОГОДА в Перт Монт-Лоули

  • Прогноз погоды в Перт Монт-Лоули
  • Монитор погоды в Перт Монт-Лоули

АРХИВ ПОГОДЫ в Перт Монт-Лоули

Время (UTC), дата Ветер
(напр.,м/с)
 
Видим.   Явления Облачность Т
(С)
Тd
(С)
f
(%)
Тe
(С)
Тes
(С)
Комфортность P
(гПа)
Po
(гПа)
Тmin
(С)
Tmax
(С)
R
(мм)
R24
(мм)
S
(см)
07 17.03 ЮЗ 4 н/о н/о +31.5 +17.4 43 +35 +35 очень
душно
1011.2 1008.3
09 17.03 ЮЗ 5 н/о н/о +27.5 +17.9 56 +32 +32 очень
душно
1011.2 1008.3
10 17.03 ЮЗ 4 н/о н/о +25.8 +18.0 62 +30 +30 душно 1011.9 1009.0
12 17.03 ЮЗ 4 н/о н/о +23.8 +18.9 74 +29 +29 душно 1012.5 1009.6
13 17.03 ЮЗ 3 н/о н/о +23.6 +19.1 76 +28 +28 душно 1013.0 1010.1 +33.5
15 17.03 Ю 1 н/о н/о +22.8 +18.6 77 +29 +29 очень
душно
1011.9 1009.0
16 17.03 В 1 н/о н/о +23.5 +17.0 67 +27 +27 душно 1011.7 1008.8
18 17.03 В 3 н/о н/о +24.5 +16.2 60 +28 +28 душно 1011.6 1008.7
19 17.03 В 3 н/о н/о +23.2 +17.0 68 +28 +28 душно 1011.5 1008.6
21 17.03 В 1 н/о н/о +22.2 +16.9 72 +27 +27 душно 1011.8 1008.9
22 17.03 В 1 н/о н/о +21.6 +17.0 75 +26 +26 душно 1012.2 1009.3
00 18.03 ЮВ 2 н/о н/о +25.2 +17.7 63 +29 +29 душно 1013.0 1010.1
01 18.03 СВ 3 н/о н/о +27.9 +17.4 53 +32 +32 душно 1012.9 1010.0 +21.0
03 18.03 СВ 4 н/о н/о +33.0 +15.9 36 +36 +36 очень
душно
1011.9 1009.0
04 18.03 СЗ 3 н/о н/о +34.5 +16.8 35 +37 +37 очень
душно
1010.9 1008.0
06 18.03 З 3 н/о н/о +32.3 +17.0 40 +36 +36 очень
душно
1009.6 1006.7
07 18.03 З 3 н/о н/о +32.1 +17.2 41 +36 +36 очень
душно
1009.0 1006.1
09 18.03 ЮЗ 3 н/о н/о +28.8 +16.7 48 +32 +32 душно 1009.3 1006.4
10 18.03 З 3 н/о н/о +28.4 +17.3 51 +32 +32 душно 1009.4 1006.5
12 18.03 ЮЗ 1 н/о н/о +25.4 +16.8 59 +29 +29 душно 1010.2 1007.3
13 18.03 штиль 0 н/о н/о +25.0 +17.5 63 +29 +29 душно 1010.3 1007.4 +34.9
15 18.03 штиль 0 н/о н/о +23.0 +18.1 74 +29 +29 очень
душно
1010.1 1007.2
16 18.03 штиль 0 н/о н/о +22.4 +17.8 75 +27 +27 душно 1009.7 1006.8
18 18.03 штиль 0 н/о н/о +21.2 +18.0 82 +25 +25 комфорт 1009.9 1007.0
19 18.03 штиль 0 н/о н/о +21.1 +18.3 84 +25 +25 комфорт 1009.5 1006.6
21 18.03 штиль 0 н/о н/о +21.7 +16.9 74 +26 +26 душно 1009.8 1006.9
22 18.03 С 2 н/о н/о +20.9 +15.4 71 +25 +25 комфорт 1010.0 1007.1
00 19.03 С 1 н/о н/о +25.3 +16.7 59 +29 +29 душно 1010.7 1007.8
01 19.03 СВ 3 н/о н/о +28.5 +16.1 47 +32 +32 душно 1010.8 1007.9 +20.5
03 19.03 С 3 н/о н/о +32.2 +18.8 45 +37 +37 очень
душно
1010.4 1007.5
04 19.03 З 3 н/о н/о +31.2 +20.2 52 +38 +38 очень
душно
1009.7 1006.8
06 19.03 З 5 н/о н/о +29.8 +19.8 55 +36 +36 очень
душно
1008.7 1005.8
07 19.03 З 4 н/о н/о +28.7 +19.6 58 +35 +35 очень
душно
1008.7 1005.8
09 19.03 ЮЗ 3 н/о н/о +27.1 +18.7 60 +32 +32 очень
душно
1008.3 1005.4
10 19.03 ЮЗ 3 н/о н/о +24.7 +19.5 73 +30 +30 очень
душно
1009.1 1006.2
12 19.03 штиль 0 н/о н/о +23.3 +19.5 79 +30 +30 очень
душно
1010.6 1007.7
13 19.03 штиль 0 н/о н/о +22.6 +19.4 82 +29 +29 очень
душно
1010.8 1007.9 +34.2
15 19.03 З 1 н/о н/о +22.4 +20.1 87 +29 +29 очень
душно
1010.3 1007.4
16 19.03 З 1 н/о н/о +22.2 +20.7 91 +29 +29 очень
душно
1010.6 1007.7
18 19.03 штиль 0 н/о н/о +21.2 +20.4 95 +26 +26 душно 1010.3 1007.4
19 19.03 штиль 0 н/о н/о +20.7 +20.0 96 +25 +25 комфорт 1010.1 1007.2
21 19.03 З 1 н/о н/о +20.8 +20.6 99 +27 +27 душно 1010.6 1007.7
22 19.03 штиль 0 н/о н/о +20.7 +20.4 98 +25 +25 комфорт 1011.0 1008.1
00 20.03 С 2 н/о н/о +23.0 +19.8 82 +30 +30 очень
душно
1012.0 1009.1
01 20.03 С 2 н/о н/о +24.8 +18.3 67 +29 +29 душно 1012.2 1009.3 +20.3
03 20.03 С 2 н/о н/о +29.5 +18.3 51 +34 +34 очень
душно
1011.5 1008.6
04 20.03 З 3 н/о н/о +29.7 +20.0 56 +36 +36 очень
душно
1010.9 1008.0
06 20.03 З 4 н/о н/о +27.7 +19.8 62 +34 +34 очень
душно
1010.1 1007.2
07 20.03 З 4 н/о н/о +27.1 +20.2 66 +33 +33 очень
душно
1009.7 1006.8
09 20.03 З 3 н/о н/о +26.6 +19.7 66 +32 +32 очень
душно
1009.3 1006.4
10 20.03 З 3 н/о н/о +25.6 +19.7 70 +31 +31 очень
душно
1009.8 1006.9
12 20.03 ЮЗ 2 н/о н/о +24.7 +19.1 71 +30 +30 очень
душно
1010.5 1007.6
13 20.03 СЗ 2 н/о н/о +23.9 +19.6 77 +29 +29 душно 1010.6 1007.7 +31.8
15 20.03 штиль 0 н/о н/о +23.2 +19.6 80 +30 +30 очень
душно
1010.3 1007.4
16 20.03 штиль 0 н/о н/о +22.6 +19.6 83 +29 +29 очень
душно
1009.7 1006.8
18 20.03 штиль 0 н/о н/о +21.9 +20.2 90 +28 +28 душно 1008.6 1005.7
19 20.03 В 2 н/о н/о +23.3 +17.1 68 +28 +28 душно 1008.4 1005.5
21 20.03 В 2 н/о н/о +23.4 +16.7 66 +28 +28 душно 1008.8 1005.9
22 20.03 В 2 н/о н/о +23.2 +16.7 67 +28 +28 душно 1009.7 1006.8
00 21.03 В 1 н/о н/о +23.6 +17.1 67 +27 +27 жарко 1010.0 1007.1
01 21.03 СВ 2 н/о н/о +25.2 +17.4 62 +29 +29 душно 1010.0 1007.1 +21.9
03 21.03 ЮВ 2 н/о н/о +28.8 +17.3 50 +33 +33 очень
душно
1009.9 1007.0
04 21.03 СЗ 1 н/о н/о +31.5 +18.5 46 +36 +36 очень
душно
1009.5 1006.6
06 21.03 З 3 н/о н/о +29.0 +18.7 54 +34 +34 очень
душно
1008.7 1005.8
07 21.03 З 3 н/о н/о +29.3 +18.1 51 +34 +34 очень
душно
1008.8 1005.9
09 21.03 ЮЗ 4 н/о н/о +27.7 +17.3 53 +32 +32 очень
душно
1008.8 1005.9
10 21.03 З 2 н/о н/о +25.4 +18.6 66 +30 +30 душно 1009.0 1006.1
12 21.03 З 1 н/о н/о +23.2 +18.1 73 +29 +29 душно 1010.1 1007.2
13 21.03 штиль 0 н/о н/о +22.2 +19.4 84 +28 +28 душно 1010.1 1007.2 +31.8
15 21.03 штиль 0 н/о н/о +21.0 +19.1 89 +25 +25 комфорт 1010.0 1007.1
16 21.03 штиль 0 н/о н/о +20.8 +19.6 93 +25 +25 комфорт 1009.9 1007.0
18 21.03 штиль 0 н/о н/о +20.3 +19.3 94 +24 +24 комфорт 1009.9 1007.0
22 21.03 ЮВ 2 н/о н/о +20.7 +16.9 79 +25 +25 комфорт 1010.9 1008.0
01 22.03 ЮВ 4 н/о н/о +23.7 +17.2 67 +28 +28 душно 1012.6 1009.7 +18.9
03 22.03 Ю 4 н/о н/о +25.9 +17.5 60 +30 +30 душно 1012.1 1009.2
04 22.03 Ю 5 н/о н/о +26.6 +17.9 59 +31 +31 душно 1011.6 1008.7
06 22.03 Ю 5 н/о н/о +27.9 +17.4 53 +32 +32 душно 1011.1 1008.2
07 22.03 Ю 5 н/о н/о +28.1 +17.3 52 +32 +32 душно 1010.8 1007.9
09 22.03 Ю 6 н/о н/о +27.0 +16.0 51 +30 +30 душно 1011.4 1008.5
10 22.03 Ю 5 н/о н/о +26.0 +15.4 52 +29 +29 душно 1012.1 1009.2
12 22.03 Ю 5 н/о н/о +23.4 +16.2 64 +28 +28 душно 1014.0 1011.1
13 22.03 Ю 5 н/о н/о +21.8 +15.2 66 +25 +25 комфорт 1015.6 1012.6 +29.0
15 22.03 ЮВ 5 н/о н/о +19.7 +13.9 69 +21 +21 комфорт 1017.1 1014.1
16 22.03 ЮВ 4 н/о н/о +19.5 +13.2 67 +21 +21 комфорт 1017.5 1014.5
18 22.03 Ю 4 н/о н/о +16.8 +9.2 61 +16 +16 1018.3 1015.3
19 22.03 Ю 4 н/о н/о +16.1 +9.1 63 +15 +15 1018.0 1015.0
21 22.03 ЮВ 3 н/о н/о +15.0 +9.4 69 +14 +14 1018.7 1015.7
22 22.03 ЮВ 4 н/о н/о +14.7 +9.5 71 +14 +14 1018.7 1015.7
00 23.03 ЮВ 3 н/о н/о +17.0 +8.9 59 +17 +17 1019.2 1016.2
01 23.03 ЮВ 4 н/о н/о +19.4 +8.7 50 +20 +20 1019.0 1016.0 +14.7
03 23.03 ЮВ 3 н/о н/о +22.1 +9.6 45 +24 +24 комфорт 1018.2 1015.2
04 23.03 В 3 н/о н/о +23.8 +9.8 41 +25 +25 комфорт 1017.4 1014.4
06 23.03 Ю 3 н/о н/о +25.7 +9.1 35 +26 +26 жарко 1015.8 1012.8
07 23.03 Ю 3 н/о н/о +25.6 +11.4 41 +27 +27 жарко 1015.2 1012.2
09 23.03 ЮЗ 5 н/о н/о +22.8 +12.7 53 +26 +26 жарко 1014.7 1011.8
10 23.03 ЮЗ 5 н/о н/о +21.5 +13.2 59 +24 +24 комфорт 1014.8 1011.9
12 23.03 Ю 3 н/о н/о +20.3 +11.2 56 +22 +22 комфорт 1016.2 1013.2
13 23.03 Ю 3 н/о н/о +20.0 +10.1 53 +22 +22 комфорт 1016.7 1013.7 +27.6
15 23.03 Ю 3 н/о н/о +18.6 +8.0 50 +19 +19 1017.1 1014.1
16 23.03 Ю 4 н/о н/о +17.8 +7.5 51 +18 +18 1017.1 1014.1
18 23.03 Ю 4 н/о н/о +15.6 +7.4 58 +15 +15 1017.6 1014.6
19 23.03 Ю 3 н/о н/о +14.5 +7.3 62 +14 +14 1017.8 1014.8
21 23.03 Ю 3 н/о н/о +13.0 +7.2 68 +12 +12 1018.7 1015.7
22 23.03 Ю 2 н/о н/о +11.8 +7.3 74 +11 +11 1019.3 1016.3
00 24.03 Ю 3 н/о н/о +15.2 +8.4 64 +15 +15 1020.1 1017.1
01 24.03 ЮВ 3 н/о н/о +18.0 +9.1 56 +18 +18 1020.6 1017.6 +11.1
03 24.03 Ю 2 н/о н/о +21.5 +8.4 43 +23 +23 комфорт 1019.0 1016.0
04 24.03 Ю 3 н/о н/о +22.8 +8.5 40 +24 +24 комфорт 1018.0 1015.0
06 24.03 ЮЗ 4 н/о н/о +24.3 +12.3 47 +26 +26 жарко 1016.5 1013.5
07 24.03 З 4 н/о н/о +23.6 +12.6 50 +26 +26 жарко 1016.5 1013.5

 

Местоположение метеостанции Перт Монт-Лоули (Западная Австралия, Австралия): широта -31.92 долгота 115.87 высота над уровнем моря 25 м.

В архиве по умолчанию представлена погода в Перт Монт-Лоули за последнюю неделю. Архивные данные за месяц целиком и за предыдущие месяцы, начиная с января 2011 года, Вы можете получить, выбрав интересующий диапазон дат из раскрывающегося списка и нажав кнопку "Ввод!".


*Определитесь, кто Вы:
робот инопланетянин человек

Внимание! Время в таблицах - всемирное. Для получения местного времени необходимо прибавить поправку, которая равна 8 ч.

Смотрите также архив погоды в соседних городах и на ближайших метеорологических станциях:

Погода в Перте (Западная Австралия, Австралия) (9 км)
Погода в Суонборне (Западная Австралия, Австралия) (10 км)
Погода в Гусберри Хилл (Западная Австралия, Австралия) (17 км)
Погода в Перт Джандакот (Западная Австралия, Австралия) (20 км)
Погода в Ошен Риф (Западная Австралия, Австралия) (22 км)
Погода в Обсерватории Перт (Западная Австралия, Австралия) (27 км)
Погода в Буллсбрук Пирс (Западная Австралия, Австралия) (31 км)
Погода на Острове Роттнест (Западная Австралия, Австралия) (37 км)
Погода на Острове Гарден (Западная Австралия, Австралия) (39 км)
Погода в Гингине (Западная Австралия, Австралия) (50 км)

Пояснения к столбцам:

Ветер - указаны скорость ветра в м/с - средняя за 10 мин, порывы в срок и между сроками (в фигурных скобках) и направление, откуда дует ветер: С - северный, СВ - северо-восточный, В - восточный, ЮВ - юго-восточный, Ю - южный, ЮЗ - юго-западный, З - западный, СЗ - северо-западный.
Видимость - горизонтальная дальность видимости в метрах или километрах. При видимости от 1 до 10 км при отсутствии осадков обычно наблюдается дымка, при ухудшении видимости до 1 км и менее - туман. В сухую погоду видимость может ухудшаться дымом, пылью или мглою.
Явления - указаны атмосферные явления, наблюдавшиеся в срок или в последний час перед сроком; фигурными скобками обозначены явления, наблюдавшиеся между сроками (за 1-3 часа до срока); квадратными скобками обозначены град или гололедные отложения с указанием их диаметра в мм.
Облачность - указаны через наклонную черту общая и нижняя облачность в баллах и высота нижней границы облаков в метрах; квадратными скобками обозначены формы облаков: Ci - перистые, Cs - перисто-слоистые, Cc - перисто-кучевые, Ac - высококучевые, As - высокослоистые, Sc - слоисто-кучевые, Ns - слоисто-дождевые, Cu - кучевые, Cb - кучево-дождевые. Подробнее классификацию облаков см. в Атласе облаков (PDF).
T - Температура воздуха - температура, измеренная на высоте 2 м над землей.
Td - Температура точки росы - температура, при понижении до которой содержащийся в воздухе водяной пар достигнет насыщения.
f - Относительная влажность воздуха - влажноcть воздуха, измеренная на высоте 2 м над землей.
Te - Эффективная температура - температура, которую ощущает одетый по сезону человек в тени. Характеристика душности погоды. При расчете учитывается влияние влажности воздуха и скорости ветра на теплоощущения человека.
Tes - Эффективная температура на солнце - температура, которую ощущает человек, с поправкой на солнечный нагрев. Характеристика знойности погоды. Зависит от высоты солнца над горизонтом, облачности и скорости ветра. Ночью, в пасмурную погоду, а также при ветре 12 м/с и более поправка равна нулю.
P - Атмосферное давление - приведенное к уровню моря атмосферное давление.
Po - Атмосферное давление - измеренное на уровне метеостанции атмосферное давление.
Tmin - Минимальная температура - минимум температуры воздуха на высоте 2 м над землей.
Tmax - Максимальная температура - максимум температуры воздуха на высоте 2 м над землей.
R - Количество осадков - Количество выпавших осадков за период времени, мм. При наведении курсора мыши на число - период времени, за который выпало указанное количество осадков.
R24 - Количество осадков - Количество выпавших осадков за 24 часа, мм.
S - Снежный покров - Высота снежного покрова, см. При наведении курсора мыши на число - состояние снежного покрова и степень покрытия местности в баллах.